Starlink 3917

operational
NORAD ID: 52588 Int'l Des: 2022-051 Owner: SPXS Country: US Constellation: starlink
LEOCIRCULAR

About Starlink 3917

Description loading...

Live Position

Loading 3D Globe...

Upcoming Passes

Altitude History

Altitude vs Time

uPlot chart will show altitude changes over time

Two-Line Element Set

1 52588U 22051BE 26062.49548151 .00000598 00000-0 55671-4 0 9991
2 52588 53.2173 146.9287 0001170 92.1707 267.9420 15.08834694210655
Epoch: Mar 3, 2026 • Age: 39 hours

Current Status

Altitude 543.6 km
Velocity 7.60 km/s
Sub-Earth Point 44.34°N, 118.91°W
Launch Date May 13, 2022
Age 3.8 years
Type internet

Technical Details

Classification Payload
Mass 297.00 kg
Dry Mass 275.00 kg
Total Mass 297.00 kg
Length 0.20 m
Diameter 2.80 m
Span 9.00 m
Shape Box + pan
Manufacturer SPXS
Bus Type Starlink
Phase Status In Orbit
Owner/State SPXS/US

Large Constellations

Loading constellations...